Location: Unspecified
(0.0000°N, 0.0000°E)
Time: 18:23:17
(UTC+00:00)

Hubble Space Telescope - Pass Details

Date: 09 November 2025
Orbit: 482 x 485 km, 28.5° (Epoch: 06 November)

Event Time Altitude Azimuth Distance (km) Brightness Sun altitude
Rises 05:00:03 0° 222° (SW) 2,532 4.0 -10.5°
Reaches altitude 10° 05:02:30 10° 209° (SSW) 1,652 3.1 -9.9°
Maximum altitude 05:05:44 26° 151° (SSE) 974 2.7 -9.1°
Drops below altitude 10° 05:08:57 10° 92° (E) 1,649 4.7 -8.3°
Sets 05:11:24 0° 79° (E) 2,527 5.5 -7.8°
